Vertical_Velocity
2 1 1 -0 -0 0 -1 -1 0 1 -1 -1 0 -0 -1 -1 3 4 -10 5 -5 -4 -6 2 -4 2 -3 1 1 12 12 -1 -11 7 -18 -3 1 4 -7 -1 -2 -3 1 25 -9
-1 -1 -1 -2 -2 -2 -1 -1 1 1 1 1 1 -1 -1 -1 4 -4 5 -2 -3 -4 -7 -0 7 5 5 -2 10 14 9 -10 -4 -1 -1 -2 8 2 7 -1 -4 -2 0 8 -5
-1 -2 -1 -1 -0 -0 -0 -0 -1 -1 0 -0 -2 -2 -4 -2 16 7 -4 -3 -4 -4 2 1 -1 3 6 6 -8 -9 -2 -6 -15 2 7 -0 -1 -1 5 -2 -7 -4 2 2 -5
-0 -2 -1 -2 -2 -2 -1 -2 -1 -1 -0 -1 -1 -0 -7 -6 16 -3 -13 -12 -6 -8 -2 1 3 5 7 4 -3 19 -3 3 -14 -4 2 0 0 -4 8 -16 -1 -3 6 9 11
1 1 -0 1 -0 -2 0 -0 0 -1 -2 -3 -2 -4 -3 8 2 -1 -3 0 5 -5 -0 -1 3 3 4 3 5 10 -6 0 -5 -0 -3 3 -5 -6 -8 -6 -4 0 -5 -7 1
-0 -1 -3 -2 -2 -2 -2 -2 -1 -1 -2 -1 -4 -4 20 -9 -3 -2 -5 -4 2 1 -0 -1 -1 4 -0 1 13 -3 2 -4 -2 -4 2 13 -10 32 -27 -0 -1 -0 -5 -4 1
-2 -1 -1 -2 0 0 -2 -1 0 -2 0 -1 -6 -2 -15 6 1 -2 -3 1 -2 0 -1 -1 -1 7 4 -2 3 -0 8 -1 -5 -7 -9 8 2 -5 -11 2 -5 2 -4 -3 -4
-1 1 1 0 -1 -2 -0 1 -1 -2 -2 -3 -4 6 -1 -4 -7 -8 -0 -2 -5 -1 -1 -3 0 -1 7 -3 -8 12 15 9 -22 2 -21 30 -28 -15 -1 14 2 -1 -4 -2 -7
1 1 0 -1 -2 -2 -2 -0 1 1 -6 8 2 3 3 1 -8 -2 -4 1 -6 0 -6 -9 -3 3 7 7 -1 -3 -1 3 -11 -1 -0 16 -13 -13 0 8 -3 -2 1 -1 -2
-2 -2 -1 -0 2 2 1 -5 -0 7 -8 -9 -11 4 -16 -5 -8 -1 -4 -6 -3 2 -2 4 6 4 -0 -2 3 -1 -2 -8 2 -20 -4 -3 -9 -6 -7 7 -3 -0 -3 4 1
-2 -2 -1 -2 -1 -2 3 -8 11 10 -18 -1 9 -2 1 -4 11 -11 -16 -3 -6 4 1 -3 8 1 3 3 3 4 5 3 -11 -12 21 -3 -2 -8 -7 3 -1 -2 -1 -3 -5
-1 -1 -1 -1 -2 -0 -0 18 -3 8 2 -2 2 1 1 -5 -6 -12 -14 -5 -3 2 -5 12 4 4 1 1 3 1 3 -10 -13 -5 23 -2 -10 -6 -0 -8 -1 -1 -5 -1 -2
1 -0 -0 0 0 -2 -3 -1 -2 -4 9 -1 3 -4 6 1 7 1 -12 -3 4 -2 -0 1 9 0 4 -3 -0 -4 8 -2 16 -7 -7 10 -9 -4 -16 2 -3 -7 -2 -2 -3
-2 -2 -2 -1 1 -3 -2 -2 -2 -5 8 6 -7 -3 -8 -4 9 7 -7 4 -6 7 2 1 -1 2 -1 2 5 2 2 4 2 12 -1 16 -14 -7 -5 -5 2 -2 -1 -9 -7
-2 -4 -2 -3 -3 1 -4 -3 -3 -4 7 2 0 -20 8 -7 2 -10 8 -20 3 3 9 8 -1 -2 -1 9 7 -4 6 6 4 4 17 -12 19 -28 5 -3 -6 -6 -6 -4 1
-2 -0 0 1 -2 -1 -1 -2 -4 16 6 4 -0 -1 -10 -9 -3 -6 1 -24 -10 6 1 6 -3 3 8 -0 6 -1 1 -2 5 9 15 -16 17 -14 6 19 -4 -5 -5 3 4
-1 1 -6 -3 -2 -2 -2 -1 10 -5 2 -4 1 -2 1 -2 -7 -4 -2 -7 1 -6 -5 -10 0 -1 1 -4 -8 -5 -3 -8 -6 13 -6 0 4 24 4 3 12 6 -1 -1 -3
-2 -2 1 -3 -3 -2 -2 10 -11 2 3 -2 1 -3 2 2 -4 -5 -3 -2 -3 -3 2 5 -21 -1 -9 13 10 -1 10 8 3 5 -4 -1 3 16 12 4 4 3 6 -0 -4
-1 -1 -2 -1 -1 -1 12 -7 9 4 7 2 -9 -2 -3 -4 9 -0 2 1 5 4 9 5 -14 -21 7 -1 12 -10 2 8 10 -1 17 -2 -2 -6 -8 -8 -7 -3 -5 -2 -1
2 -3 -10 -5 -4 -3 -7 0 0 2 1 -2 3 3 2 -1 -2 0 -0 5 -1 4 4 -11 -2 -2 -18 6 -5 18 -0 -9 -5 3 -2 4 2 8 -10 -3 -4 -7 -1 -6 -8
-5 13 -3 -2 -2 -13 -3 3 0 -0 0 3 2 -1 3 5 7 -1 -1 -6 -2 -6 2 8 21 -29 7 -1 4 -12 -4 -4 10 5 4 2 13 10 8 7 5 1 4 -1 -4
1 -5 -9 -15 -19 1 -0 3 -3 -0 -3 1 1 2 3 1 0 1 4 7 -1 11 3 -2 9 2 -0 -11 2 7 4 4 8 -11 -2 5 14 4 5 4 3 2 2 1 3
-4 3 -17 1 -5 1 5 2 -0 -3 1 -1 0 2 -0 3 3 3 -0 3 -2 2 11 -4 -6 -2 -21 -19 -17 3 1 1 2 2 4 -0 10 -1 -4 -6 -3 2 -1 -1 -2
2 -5 -2 -9 -0 -3 -0 3 1 -4 2 -0 0 -0 -3 -3 -2 -2 -4 -9 -0 1 -4 2 -1 16 13 11 10 -5 -1 -0 -1 -3 1 9 1 -11 -6 0 -7 -7 -1 2 -7
-1 2 -3 1 -2 -1 -5 -1 -0 -1 -1 -1 -2 2 7 1 -3 0 -4 -11 -9 2 -3 7 5 6 -2 1 0 2 2 1 -5 9 3 12 2 6 6 6 6 10 -2 -3 -5
-5 2 3 0 -5 -4 1 2 1 -3 3 -1 2 -0 2 4 12 2 8 2 14 -14 1 -5 -7 3 -8 -3 -1 -1 -0 -0 0 0 -3 -2 0 9 3 1 -12 1 0 -4 -0
0 -11 4 -3 -0 -3 4 3 3 -0 -1 4 4 4 -2 6 4 -1 4 2 7 11 0 3 4 0 -8 0 -2 -23 9 2 3 -0 7 -1 16 1 -8 -1 1 -1 2 1 1
Height
1522 1519 1516 1513 1511 1508 1505 1502 1500 1499 1498 1499 1499 1500 1500 1499 1500 1500 1494 1500 1495 1493 1490 1491 1490 1489 1488 1486 1485 1483 1479 1464 1455 1447 1439 1437 1444 1446 1451 1451 1449 1447 1448 1450 1455
1523 1520 1517 1514 1510 1507 1504 1502 1500 1499 1499 1500 1500 1499 1500 1500 1500 1501 1502 1499 1496 1492 1491 1492 1488 1487 1485 1481 1478 1479 1467 1458 1451 1444 1442 1443 1442 1445 1449 1449 1447 1446 1445 1448 1454
1523 1520 1517 1513 1510 1507 1505 1503 1502 1500 1499 1499 1500 1501 1502 1502 1501 1504 1500 1497 1494 1491 1491 1491 1489 1486 1481 1476 1473 1470 1463 1456 1450 1447 1447 1449 1449 1448 1446 1446 1447 1444 1442 1445 1448
1524 1520 1517 1514 1511 1508 1507 1505 1503 1503 1502 1501 1500 1502 1505 1503 1501 1507 1501 1496 1492 1490 1490 1488 1485 1482 1476 1469 1466 1465 1460 1457 1453 1452 1450 1447 1447 1444 1445 1443 1445 1444 1442 1442 1443
1524 1521 1519 1516 1513 1511 1509 1507 1506 1506 1504 1504 1505 1505 1506 1507 1511 1508 1501 1497 1494 1491 1489 1486 1484 1479 1472 1466 1462 1458 1455 1453 1452 1451 1450 1450 1443 1442 1439 1443 1442 1442 1443 1442 1442
1526 1522 1520 1517 1514 1512 1511 1510 1509 1508 1508 1508 1508 1508 1509 1511 1512 1507 1501 1496 1493 1490 1488 1485 1482 1479 1476 1470 1466 1459 1454 1450 1448 1445 1442 1443 1439 1442 1426 1436 1435 1436 1437 1437 1437
1527 1523 1521 1518 1516 1514 1513 1512 1511 1511 1510 1510 1509 1510 1510 1516 1512 1507 1501 1496 1492 1489 1485 1484 1482 1481 1473 1467 1463 1461 1456 1449 1444 1440 1438 1440 1432 1427 1424 1429 1426 1426 1429 1429 1430
1527 1524 1522 1519 1517 1515 1514 1514 1513 1512 1511 1510 1510 1511 1513 1513 1510 1505 1498 1495 1491 1487 1484 1481 1480 1478 1476 1471 1464 1460 1454 1446 1431 1428 1425 1430 1419 1414 1415 1412 1410 1414 1419 1421 1421
1527 1524 1522 1520 1518 1516 1515 1515 1515 1514 1511 1511 1512 1511 1515 1514 1510 1506 1500 1493 1490 1486 1483 1481 1480 1474 1468 1463 1454 1442 1439 1431 1422 1416 1422 1423 1416 1416 1414 1410 1413 1411 1411 1413 1413
1528 1525 1522 1520 1518 1517 1517 1516 1516 1515 1513 1513 1514 1513 1514 1515 1511 1507 1499 1493 1489 1484 1481 1478 1472 1463 1455 1464 1464 1461 1456 1444 1436 1424 1421 1419 1416 1415 1418 1415 1412 1410 1409 1408 1407
1528 1525 1523 1520 1518 1516 1516 1517 1518 1518 1518 1521 1523 1522 1521 1517 1512 1508 1499 1494 1488 1482 1476 1474 1463 1476 1482 1480 1474 1469 1464 1454 1443 1437 1434 1429 1423 1419 1419 1417 1410 1407 1406 1407 1407
1529 1526 1522 1520 1519 1516 1518 1519 1517 1522 1524 1524 1523 1522 1521 1516 1513 1510 1503 1497 1491 1483 1477 1465 1471 1484 1484 1477 1471 1468 1465 1454 1443 1438 1432 1424 1418 1415 1413 1409 1410 1408 1404 1403 1404
1529 1526 1522 1520 1519 1519 1517 1517 1517 1519 1517 1524 1523 1522 1519 1516 1514 1512 1508 1502 1494 1486 1484 1478 1486 1487 1481 1473 1469 1473 1468 1456 1451 1442 1438 1433 1423 1416 1407 1405 1403 1402 1399 1400 1399
1530 1527 1523 1520 1521 1520 1519 1518 1518 1518 1508 1524 1522 1523 1521 1516 1512 1515 1511 1508 1497 1493 1488 1480 1486 1485 1478 1472 1479 1474 1467 1460 1456 1448 1436 1422 1413 1397 1388 1383 1381 1384 1389 1391 1394
1531 1527 1524 1520 1521 1522 1521 1519 1519 1521 1507 1526 1526 1527 1522 1522 1521 1515 1513 1507 1502 1499 1495 1484 1485 1486 1479 1485 1486 1473 1465 1456 1449 1437 1429 1419 1418 1398 1388 1386 1383 1382 1382 1381 1383
1533 1529 1525 1522 1522 1521 1520 1520 1522 1514 1522 1524 1529 1526 1522 1521 1518 1516 1512 1510 1508 1497 1493 1486 1485 1486 1486 1487 1482 1469 1459 1438 1418 1414 1416 1401 1400 1389 1395 1414 1403 1395 1390 1389 1386
1534 1531 1526 1524 1524 1522 1520 1523 1514 1527 1527 1530 1531 1528 1524 1523 1517 1517 1510 1507 1513 1503 1498 1484 1475 1485 1489 1485 1480 1474 1455 1433 1399 1389 1392 1392 1392 1439 1424 1425 1426 1419 1413 1406 1398
1535 1532 1530 1527 1524 1522 1522 1519 1534 1536 1536 1537 1534 1527 1525 1526 1524 1520 1511 1511 1518 1519 1508 1502 1485 1485 1488 1492 1488 1476 1465 1463 1454 1410 1407 1405 1404 1450 1440 1440 1436 1431 1425 1416 1406
1535 1535 1533 1529 1527 1525 1525 1537 1541 1545 1548 1542 1529 1528 1526 1529 1533 1523 1515 1520 1524 1527 1528 1514 1495 1498 1490 1483 1480 1472 1465 1464 1463 1437 1412 1395 1425 1413 1438 1442 1437 1434 1430 1421 1416
1539 1539 1535 1533 1530 1528 1530 1544 1551 1555 1553 1547 1540 1538 1534 1533 1534 1529 1521 1529 1530 1533 1535 1523 1508 1495 1483 1479 1473 1478 1467 1465 1459 1443 1420 1431 1455 1468 1456 1454 1450 1444 1438 1434 1425
1539 1538 1539 1535 1533 1534 1543 1549 1555 1558 1557 1555 1550 1545 1543 1543 1538 1533 1530 1528 1532 1534 1534 1522 1506 1494 1487 1476 1480 1474 1471 1469 1466 1459 1440 1426 1468 1488 1479 1473 1467 1461 1452 1448 1439
1542 1544 1543 1538 1541 1544 1552 1553 1560 1558 1557 1556 1554 1553 1551 1548 1539 1536 1535 1534 1537 1537 1528 1521 1518 1505 1494 1477 1475 1485 1477 1477 1475 1458 1454 1448 1482 1486 1485 1480 1477 1468 1460 1452 1443
1547 1550 1548 1544 1555 1555 1557 1559 1562 1560 1560 1558 1556 1558 1555 1549 1545 1537 1536 1537 1539 1538 1535 1529 1518 1510 1485 1474 1487 1483 1483 1481 1476 1470 1471 1455 1478 1489 1488 1484 1479 1471 1462 1452 1442
1550 1555 1555 1553 1554 1553 1553 1558 1559 1564 1563 1562 1560 1556 1553 1549 1544 1540 1539 1541 1540 1540 1540 1532 1521 1516 1516 1502 1491 1493 1497 1486 1489 1491 1486 1490 1492 1493 1489 1487 1482 1474 1466 1457 1447
1554 1560 1560 1563 1562 1560 1560 1562 1561 1563 1564 1562 1556 1558 1554 1547 1546 1542 1546 1541 1537 1539 1538 1533 1531 1521 1509 1500 1501 1504 1500 1498 1503 1507 1499 1506 1502 1503 1500 1492 1490 1481 1470 1457 1449
1559 1563 1564 1565 1565 1562 1564 1565 1565 1566 1565 1562 1562 1560 1556 1553 1558 1554 1550 1544 1539 1539 1536 1534 1529 1520 1511 1499 1505 1500 1504 1509 1510 1515 1512 1507 1507 1510 1502 1495 1490 1483 1471 1462 1453
1565 1565 1565 1567 1563 1563 1568 1569 1568 1568 1568 1567 1566 1562 1555 1561 1561 1558 1553 1550 1548 1542 1537 1531 1526 1515 1510 1509 1508 1510 1516 1517 1512 1518 1517 1512 1518 1512 1501 1496 1494 1485 1475 1465 1458